www.pogodaiklimat.ru
ПОГОДА в Колледж Парк
Время
и дата
11:05 24.06
11:25 24.06
11:45 24.06
12:05 24.06
12:25 24.06
12:45 24.06
13:05 24.06
13:25 24.06
13:45 24.06
14:05 24.06
14:25 24.06
14:45 24.06
15:05 24.06
15:25 24.06
15:45 24.06
16:05 24.06
16:25 24.06
16:45 24.06
17:25 24.06
17:45 24.06
18:05 24.06
18:25 24.06
18:45 24.06
19:05 24.06
19:25 24.06
19:45 24.06
20:05 24.06
20:25 24.06
20:45 24.06
21:05 24.06
21:25 24.06
21:45 24.06
22:05 24.06
22:25 24.06
22:45 24.06
23:05 24.06
23:25 24.06
23:45 24.06
00:05 25.06
00:25 25.06
00:45 25.06
01:05 25.06
01:25 25.06
01:45 25.06
02:05 25.06
02:25 25.06
02:45 25.06
03:05 25.06
Ветер
(напр.,м/с)
Видим. Явления Облачность Т
(С)
Тd
(С)
f
(%)
Тe
(С)
Тes
(С)
Комфортность P
(гПа)
Po
(гПа)
Тmin
(С)
Tmax
(С)
R
(мм)
R24
(мм)
S
(см)
СЗ 5
{9}
16 км ясно +29.2 +12.5 36 +30 +41 жарко 1006.9
СЗ 8
{11}
16 км ясно +29.2 +12.2 35 +30 +34 жарко 1006.9
СЗ 6 16 км ясно +30.3 +13.1 35 +32 +39 жарко 1007.2
З 7
{12}
16 км ясно +29.5 +12.7 36 +31 +37 жарко 1007.2
СЗ 7
{11}
16 км ясно +29.8 +12.9 35 +31 +37 жарко 1007.6
З 7
{10}
16 км ясно +29.6 +13.0 36 +31 +37 жарко 1007.6 +26.5 +30.6
СЗ 6
{11}
16 км ясно +30.5 +13.0 34 +32 +39 жарко 1007.6
СЗ 5
{11}
16 км ясно +30.3 +12.9 34 +31 +42 жарко 1007.6
СЗ 7
{12}
16 км ясно +30.2 +11.9 32 +31 +36 жарко 1007.6
СЗ 7
{10}
16 км 5/0 2100 m
[Ac]
+29.7 +11.9 33 +30 +33 жарко 1007.6
С 8
{12}
16 км 5/0 2100 m
[Ac]
+30.7 +12.0 32 +31 +33 жарко 1007.6
С 5
{10}
16 км 5/0 2100 m
[Ac]
+30.4 +12.2 33 +31 +37 жарко 1007.6
СЗ 5
{9}
16 км 5/0 2100 m
[Ac]
+30.4 +12.2 33 +31 +36 жарко 1007.6
С 6
{9}
16 км 8/0 2100 m
[Ac]
+30.3 +11.5 31 +31 +33 жарко 1007.6
СЗ 7
{9}
16 км 5/0 2400 m
[Ac]
+29.6 +10.5 31 +30 +32 жарко 1007.9
С 6
{9}
16 км 5/0 2400 m
[Ac]
+29.7 +11.0 31 +30 +32 жарко 1007.6
СЗ 6
{8}
16 км 5/0 2400 m
[Ac]
+29.6 +10.5 31 +30 +32 жарко 1007.9
С 5 16 км ясно +29.8 +10.4 30 +30 +34 жарко 1007.9
СЗ 5 16 км ясно +29.8 +10.1 29 +30 +32 жарко 1008.6
СЗ 6
{8}
16 км ясно +29.6 +10.0 30 +30 +31 жарко 1008.6
С 4
{8}
16 км ясно +29.2 +9.4 29 +29 +30 жарко 1008.9
СЗ 3 16 км ясно +29.0 +9.5 30 +29 +30 жарко 1008.9
С 4 16 км ясно +28.5 +9.6 31 +29 +30 жарко 1009.3 +28.4 +31.2
С 3 16 км ясно +28.1 +9.5 31 +28 +28 жарко 1009.3
СЗ 2 16 км ясно +27.5 +9.7 33 +28 +28 жарко 1009.6
СЗ 2 16 км ясно +26.3 +10.5 37 +27 +27 жарко 1009.9
штиль 0 16 км ясно +24.8 +11.8 44 +26 +26 жарко 1010.3
штиль 0 16 км ясно +23.8 +12.2 48 +26 +26 жарко 1010.3
штиль 0 16 км ясно +22.8 +12.0 51 +25 +25 комфорт 1010.6
штиль 0 16 км ясно +22.2 +12.6 54 +25 +25 комфорт 1011.0
штиль 0 16 км ясно +21.7 +13.0 58 +24 +24 комфорт 1011.0
штиль 0 16 км ясно +20.7 +12.9 61 +23 +23 комфорт 1011.0
штиль 0 16 км ясно +20.5 +12.9 62 +22 +22 комфорт 1011.3
штиль 0 16 км ясно +19.9 +13.2 65 +22 +22 комфорт 1011.3
штиль 0 16 км ясно +19.8 +13.0 65 +21 +21 комфорт 1011.6
штиль 0 16 км ясно +19.5 +13.2 67 +21 +21 комфорт 1011.6
штиль 0 16 км ясно +19.1 +13.0 68 +20 +20 1011.6
штиль 0 16 км ясно +18.8 +13.1 69 +20 +20 1012.0
штиль 0 16 км ясно +18.6 +13.0 70 +19 +19 1012.0
штиль 0 16 км ясно +18.1 +13.2 73 +18 +18 1012.0
штиль 0 16 км ясно +18.2 +13.0 72 +18 +18 1012.3 +17.8 +28.5
штиль 0 16 км ясно +17.9 +13.0 73 +18 +18 1012.0
штиль 0 16 км ясно +17.8 +13.2 74 +18 +18 1012.3
штиль 0 16 км ясно +17.7 +13.1 74 +18 +18 1012.6
штиль 0 16 км ясно +17.3 +13.1 76 +17 +17 1013.0
штиль 0 16 км ясно +17.2 +13.2 77 +17 +17 1013.0
штиль 0 16 км ясно +16.9 +13.0 78 +17 +17 1013.3
штиль 0 16 км ясно +16.7 +13.0 79 +17 +17 1013.7
Местоположение метеостанции College Park Airport: широта 38.9806 долгота -76.9223 высота над уровнем моря 15 м.
В архиве по умолчанию представлена погода в Колледж Парк за последние 1-2 суток. Обновление информации о фактической погоде в базе происходит ежечасно! Архивные данные за месяц целиком и за предыдущие месяцы Вы можете получить, выбрав интересующий диапазон дат из раскрывающегося списка и нажав кнопку "Ввод!".
Внимание! Архив погоды МЕТАР в базе сайта по станциям, не включенным в климатический монитор, хранится не более 60 дней. Нет смысла пытаться выбрать более раннюю дату.
*Определитесь, кто Вы:
Внимание! Время в таблицах - местное (без учета летнего времени). Для получения всемирного времени необходимо вычесть поправку, которая равна -5 ч.
Смотрите также архив погоды в соседних городах и на ближайших метеорологических станциях:
Партнеры нашего сайта:      
Пояснения к столбцам:
  • Ветер - указаны скорость ветра в м/с - средняя за 10 мин, порывы в срок и между сроками (в фигурных скобках) и направление, откуда дует ветер: С - северный,
  • СВ - северо-восточный, В - восточный, ЮВ - юго-восточный, Ю - южный, ЮЗ - юго-западный, З - западный, СЗ - северо-западный.
  • Видимость - горизонтальная дальность видимости в метрах или километрах. При видимости от 1 до 10 км при отсутствии осадков обычно наблюдается дымка, при ухудшении видимости до 1 км и менее - туман. В сухую погоду видимость может ухудшаться дымом, пылью или мглою.
  • Явления - указаны атмосферные явления, наблюдавшиеся в срок или в последний час перед сроком; фигурными скобками обозначены явления, наблюдавшиеся между сроками (за 1-3 часа до срока); квадратными скобками обозначены град или гололедные отложения с указанием их диаметра в мм.
  • Облачность - указаны через наклонную черту общая и нижняя облачность в баллах и высота нижней границы облаков в метрах; квадратными скобками обозначены формы облаков: Ci - перистые, Cs - перисто-слоистые, Cc - перисто-кучевые, Ac - высококучевые, As - высокослоистые, Sc - слоисто-кучевые, Ns - слоисто-дождевые, Cu - кучевые, Cb - кучево-дождевые. Подробнее классификацию облаков см. в Атласе облаков (PDF).
  • T - Температура воздуха - температура, измеренная на высоте 2 м над землей.
  • Td - Температура точки росы - температура, при понижении до которой содержащийся в воздухе водяной пар достигнет насыщения.
  • f - Относительная влажность воздуха - влажноcть воздуха, измеренная на высоте 2 м над землей.
  • Te - Эффективная температура - температура, которую ощущает одетый по сезону человек в тени. Характеристика душности погоды. При расчете учитывается влияние влажности воздуха и скорости ветра на теплоощущения человека.
  • Tes - Эффективная температура на солнце - температура, которую ощущает человек, с поправкой на солнечный нагрев. Характеристика знойности погоды. Зависит от высоты солнца над горизонтом, облачности и скорости ветра. Ночью, в пасмурную погоду, а также при ветре 12 м/с и более поправка равна нулю.
  • P - Атмосферное давление - приведенное к уровню моря атмосферное давление.
  • Po - Атмосферное давление - измеренное на уровне метеостанции атмосферное давление.
  • Tmin - Минимальная температура - минимум температуры воздуха на высоте 2 м над землей.
  • Tmax - Максимальная температура - максимум температуры воздуха на высоте 2 м над землей.
  • R - Количество осадков - Количество выпавших осадков за период времени, мм. При наведении курсора мыши на число - период времени, за который выпало указанное количество осадков.
  • R24 - Количество осадков - Количество выпавших осадков за 24 часа, мм.
  • S - Снежный покров - Высота снежного покрова, см. При наведении курсора мыши на число - состояние снежного покрова и степень покрытия местности в баллах.